TimeCDT,TemperatureF,Dew PointF,Humidity,Sea Level PressureIn,VisibilityMPH,Wind Direction,Wind SpeedMPH,Gust SpeedMPH,PrecipitationIn,Events,Conditions,WindDirDegrees,DateUTC
12:53 AM,43.0,30.9,62,30.09,10.0,NNW,8.1,-,N/A,,Clear,330,2014-03-13 05:53:00
1:53 AM,43.0,27.0,53,30.10,10.0,NNW,15.0,25.3,N/A,,Clear,330,2014-03-13 06:53:00
2:53 AM,42.1,25.0,51,30.11,10.0,NNW,15.0,24.2,N/A,,Clear,340,2014-03-13 07:53:00
3:53 AM,39.9,26.1,58,30.13,10.0,NNW,11.5,-,N/A,,Clear,330,2014-03-13 08:53:00
4:53 AM,37.9,26.1,62,30.15,10.0,NW,5.8,-,N/A,,Clear,320,2014-03-13 09:53:00
5:53 AM,37.0,27.0,67,30.17,10.0,NW,8.1,-,N/A,,Clear,320,2014-03-13 10:53:00
6:53 AM,36.0,27.0,70,30.20,10.0,WNW,6.9,-,N/A,,Clear,300,2014-03-13 11:53:00
7:53 AM,39.0,28.9,67,30.23,10.0,NW,10.4,-,N/A,,Clear,310,2014-03-13 12:53:00
8:53 AM,44.1,27.0,51,30.25,10.0,NW,13.8,-,N/A,,Clear,310,2014-03-13 13:53:00
9:53 AM,48.0,26.1,42,30.26,10.0,North,19.6,25.3,N/A,,Clear,360,2014-03-13 14:53:00
10:53 AM,51.1,27.0,39,30.26,10.0,NNW,19.6,-,N/A,,Clear,340,2014-03-13 15:53:00
11:53 AM,55.0,27.0,34,30.25,10.0,North,9.2,23.0,N/A,,Clear,350,2014-03-13 16:53:00
12:53 PM,57.0,26.1,30,30.24,10.0,NNW,16.1,20.7,N/A,,Clear,340,2014-03-13 17:53:00
1:53 PM,57.9,26.1,30,30.21,10.0,NW,18.4,23.0,N/A,,Clear,320,2014-03-13 18:53:00
2:53 PM,60.1,26.1,27,30.20,10.0,North,17.3,32.2,N/A,,Clear,350,2014-03-13 19:53:00
3:53 PM,61.0,27.0,27,30.20,10.0,NNW,13.8,18.4,N/A,,Clear,330,2014-03-13 20:53:00
4:53 PM,60.1,26.1,27,30.20,10.0,NNW,11.5,18.4,N/A,,Clear,330,2014-03-13 21:53:00
5:53 PM,59.0,28.0,31,30.21,10.0,NNW,8.1,-,N/A,,Clear,340,2014-03-13 22:53:00
6:53 PM,54.0,30.0,40,30.24,10.0,North,5.8,-,N/A,,Clear,350,2014-03-13 23:53:00
7:53 PM,50.0,32.0,50,30.25,10.0,NNW,5.8,-,N/A,,Clear,330,2014-03-14 00:53:00
8:53 PM,46.9,33.1,59,30.27,10.0,NW,4.6,-,N/A,,Clear,320,2014-03-14 01:53:00
9:53 PM,45.0,36.0,71,30.29,10.0,NNW,4.6,-,N/A,,Clear,340,2014-03-14 02:53:00
10:53 PM,46.0,32.0,58,30.30,10.0,Calm,Calm,-,N/A,,Clear,0,2014-03-14 03:53:00
11:53 PM,42.1,36.0,79,30.29,10.0,NE,3.5,-,N/A,,Clear,40,2014-03-14 04:53:00